Location: Bush Observatory
(40.2653°N, 94.3194°W)
Time: 11:42:07
(UTC-05:00)

Vanguard 1 - Visible Passes

Search period start: 20 April 2018 00:00
Search period end: 30 April 2018 00:00
Orbit: 650 x 3833 km, 34.2° (Epoch: 19 April)

Date Brightness Start Highest point End Pass type
(mag) Time Alt. Az. Time Alt. Az. Time Alt. Az.
20 Apr 10.6 03:44:37 53° S 03:44:39 53° S 03:55:12 10° ESE visible
20 Apr 12.0 05:58:17 10° W 06:06:05 35° SSW 06:19:15 10° SE visible
21 Apr 12.6 01:51:53 12° E 01:51:53 12° E 01:52:21 10° E visible
21 Apr 10.7 04:04:36 46° SSW 04:05:37 48° S 04:16:21 10° ESE visible
22 Apr 12.3 02:11:55 16° ESE 02:11:55 16° ESE 02:13:34 10° ESE visible
22 Apr 10.9 04:24:40 36° SW 04:26:37 42° SSW 04:37:17 10° SE visible
23 Apr 12.1 02:32:02 20° ESE 02:32:02 20° ESE 02:34:44 10° ESE visible
23 Apr 11.2 04:44:47 27° SW 04:47:38 35° SSW 04:57:58 10° SE visible
24 Apr 11.9 02:52:14 23° SE 02:52:14 23° SE 02:55:49 10° ESE visible
24 Apr 11.5 05:04:58 20° WSW 05:08:42 28° SSW 05:18:18 10° SSE visible
25 Apr 11.7 03:12:30 25° SE 03:12:30 25° SE 03:16:46 10° SE visible
25 Apr 11.8 05:25:16 14° WSW 05:29:47 22° SSW 05:38:07 10° SSE visible
26 Apr 11.7 03:32:51 25° SSE 03:32:51 25° SSE 03:37:31 10° SE visible
26 Apr 12.1 05:46:11 10° WSW 05:50:54 16° SSW 05:57:08 10° S visible
26 Apr 11.4 20:50:42 10° SSE 20:51:29 10° SSE 20:52:14 10° SSE visible
27 Apr 11.7 03:53:16 23° SSE 03:53:16 23° SSE 03:57:59 10° SE visible
27 Apr 11.0 21:09:03 10° SSW 21:12:21 16° SSE 21:13:29 15° SE visible
28 Apr 11.9 04:13:46 19° S 04:13:46 19° S 04:18:02 10° SSE visible
28 Apr 10.6 21:28:57 10° SSW 21:33:11 21° SSE 21:33:50 21° SSE visible
29 Apr 12.1 04:34:19 14° S 04:34:19 14° S 04:37:21 10° S visible
29 Apr 10.3 21:49:18 10° SW 21:54:00 28° SSE 21:54:07 28° SSE visible
